Starlink 30971

operational
NORAD ID: 58443 Int'l Des: 2023-183 Owner: SPXS Country: US Constellation: starlink
LEOCIRCULAR

Über Starlink 30971

Beschreibung wird geladen...

Live-Position

3D-Globus wird geladen...

Nächste Überflüge

Höhenverlauf

Altitude vs Time

uPlot chart will show altitude changes over time

Zweizeiliger Elementsatz

1 58443U 23183G 25258.04264489 -.00000107 00000-0 71127-5 0 9992
2 58443 43.0034 277.6286 0001053 279.7894 80.2829 15.02535508100298
Epoch: 15. Sept. 2025 • Age: 27 hours

Aktueller Status

Höhe 562.1 km
Geschwindigkeit 7.58 km/s
Subsatellitenpunkt -16.90°S, 163.29°W
Startdatum 28. Nov. 2023
Alter 1.7 years
Typ internet

Technische Details

Klassifizierung Payload
Masse 730.00 kg
Trockenmasse 700.00 kg
Gesamtmasse 730.00 kg
Länge 0.30 m
Durchmesser 4.10 m
Spannweite 29.00 m
Form Box + pan
Hersteller SPXS
Bus-Typ Starlink V2M
Phasenstatus In Orbit
Besitzer/Staat SPXS/US

Große Konstellationen

Loading constellations...